QZS-2 (MICHIBIKI-2) (42738 NORAD) Tracking and Keplerian Element Data

This shows tracking and keplerian element data for the satellite.

Feedback or suggestion? Click here.




ElementValue
Catalog42738
NameQZS-2 (MICHIBIKI-2)
Epoch Orbit662
Epoch Day80.34527562
Epoch Year2019
RAAN280.7325
Inclination43.7461
Eccentricity0.0742225
Argument of Perigee270.7348
Mean Anonmoly251.0631
Mean Motion1.00263029
Decay Rate-1.94E-06
L11 42738U 17028A 19080.34527562 -.00000194 00000-0 00000-0 0 9999
L22 42738 43.7461 280.7325 0742225 270.7348 251.0631 1.00263029 6626

Live tracking and technical data element details for QZS-2 (MICHIBIKI-2) (NORAD 42738). QZS-2 (MICHIBIKI-2) can be tracked NOW for your location showing map with azimuth and elevation plus other details from your city location.

Track the satellite on the map from your city or location and see movement details for azimuth, elevation, latitude, longitude, range, height, and movement on the map or in text.







IsCatalogInMostPopularTable: catalog: 42738, numindb: 217
Update: records affected: 1



GetName: 42738 QZS-2 (MICHIBIKI-2)

Hit Count: updated at: Sat, 23 Mar 2019 03:16:34 GMT